Cumberland, WV

11:27 AM EDT on June 28, 2017 (GMT -0400)
Greater Cumberland Regional

Weather History for KCBE - November, 2013

Change the Weather History Date:

Sunday, November 17, 2013

  Actual Average (KMRB) Record (KMRB)
Temperature  
Mean Temperature 53 °F -  
Max Temperature 60 °F 54 °F 76 °F (1927)
Min Temperature 46 °F 32 °F 13 °F (1933)
Degree Days  
Heating Degree Days 12    
Growing Degree Days 3 (Base 50)    
Moisture  
Dew Point 50 °F    
Average Humidity 85    
Maximum Humidity 100    
Minimum Humidity 72    
Precipitation  
Precipitation 0.00 in - - ()
Sea Level Pressure  
Sea Level Pressure 30.00 in    
Wind  
Wind Speed 1 mph (SSW)    
Max Wind Speed 8 mph    
Max Gust Speed -    
Visibility 9 miles    
Events      
Averages and records for this station are not official NWS values.
T = Trace of Precipitation, MM = Missing Value Source: NWS Daily Summary

Daily Weather History Graph

Daily Weather History Graph

Search for Another Location

Airport or City:

Trip Planner

Search our weather history database for the weather conditions in past years. The results will help you decide how hot, cold, wet, or windy it might be!

Date:

Astronomy

Nov. 17, 2013 Rise Set
Actual Time 7:01 AM EST 4:57 PM EST
Civil Twilight 6:32 AM EST 5:26 PM EST
Nautical Twilight 6:00 AM EST 5:59 PM EST
Astronomical Twilight 5:28 AM EST 6:31 PM EST
Moon 5:13 PM EST (11/17) 6:54 AM EST (11/17)
Length of Visible Light 10h 54m
Length of Day
9h 56m
Full, 100% of the Moon is Illuminated
Nov 17
Full
Nov 25
Last Quarter
Dec 2
New
Dec 9
First Quarter
Dec 17
Full

Hourly Weather History & Observations

Time (EST) Temp. Windchill Dew Point Humidity Pressure Visibility Wind Dir Wind Speed Gust Speed Precip Events Conditions
12:18 AM 51.8 °F - 46.4 °F 82% 30.19 in 10.0 mi Calm Calm - N/A   Overcast
12:38 AM 51.8 °F - 48.2 °F 88% 30.19 in 10.0 mi Calm Calm - N/A   Overcast
12:58 AM 51.8 °F - 48.2 °F 88% 30.19 in 10.0 mi Calm Calm - N/A   Overcast
1:18 AM 50.0 °F - 46.4 °F 87% 30.18 in 10.0 mi NE 3.5 mph - N/A   Overcast
1:38 AM 50.0 °F - 46.4 °F 87% 30.17 in 10.0 mi Calm Calm - N/A   Overcast
1:58 AM 50.0 °F - 46.4 °F 87% 30.17 in 10.0 mi Calm Calm - N/A   Overcast
2:18 AM 50.0 °F - 46.4 °F 87% 30.16 in 10.0 mi Calm Calm - N/A   Overcast
2:38 AM 50.0 °F - 46.4 °F 87% 30.16 in 10.0 mi NNE 3.5 mph - N/A   Scattered Clouds
2:58 AM 50.0 °F - 46.4 °F 87% 30.15 in 7.0 mi Calm Calm - N/A   Clear
3:18 AM 50.0 °F - 46.4 °F 87% 30.15 in 7.0 mi Calm Calm - N/A   Clear
3:38 AM 48.2 °F - 46.4 °F 93% 30.14 in 7.0 mi Calm Calm - N/A   Scattered Clouds
3:58 AM 48.2 °F - 46.4 °F 93% 30.14 in 7.0 mi Calm Calm - N/A   Scattered Clouds
4:18 AM 48.2 °F - 46.4 °F 93% 30.13 in 7.0 mi Calm Calm - N/A   Scattered Clouds
4:38 AM 46.4 °F - 46.4 °F 100% 30.12 in 7.0 mi Calm Calm - N/A   Scattered Clouds
4:58 AM 46.4 °F 45.2 °F 46.4 °F 100% 30.12 in 7.0 mi NW 3.5 mph - N/A   Scattered Clouds
5:18 AM 46.4 °F 45.2 °F 46.4 °F 100% 30.11 in 5.0 mi North 3.5 mph - N/A   Scattered Clouds
5:38 AM 46.4 °F - 46.4 °F 100% 30.11 in 7.0 mi Calm Calm - N/A   Scattered Clouds
5:58 AM 46.4 °F - 46.4 °F 100% 30.11 in 7.0 mi Calm Calm - N/A   Scattered Clouds
6:18 AM 46.4 °F - 46.4 °F 100% 30.12 in 7.0 mi Calm Calm - N/A   Scattered Clouds
6:38 AM 46.4 °F 45.2 °F 46.4 °F 100% 30.12 in 7.0 mi NNE 3.5 mph - N/A   Overcast
6:58 AM 48.2 °F - 46.4 °F 93% 30.11 in 5.0 mi ENE 3.5 mph - N/A   Mostly Cloudy
7:18 AM 48.2 °F - 46.4 °F 93% 30.12 in 5.0 mi NNW 3.5 mph - N/A   Mostly Cloudy
7:38 AM 48.2 °F - 46.4 °F 93% 30.12 in 5.0 mi Calm Calm - N/A   Mostly Cloudy
7:58 AM 48.2 °F - 46.4 °F 93% 30.12 in 4.0 mi Calm Calm - N/A   Scattered Clouds
8:18 AM 50.0 °F - 48.2 °F 94% 30.11 in 5.0 mi Calm Calm - N/A   Clear
8:38 AM 51.8 °F - 48.2 °F 88% 30.12 in 7.0 mi Calm Calm - N/A   Scattered Clouds
8:59 AM 51.8 °F - 48.2 °F 88% 30.11 in 7.0 mi Calm Calm - N/A   Scattered Clouds
9:19 AM 51.8 °F - 48.2 °F 88% 30.12 in 7.0 mi Calm Calm - N/A   Unknown
9:39 AM 53.6 °F - 50.0 °F 88% 30.12 in 7.0 mi Calm Calm - N/A   Scattered Clouds
9:59 AM 53.6 °F - 50.0 °F 88% 30.11 in 10.0 mi Calm Calm - N/A   Clear
10:19 AM 55.4 °F - 50.0 °F 82% 30.10 in 10.0 mi Calm Calm - N/A   Scattered Clouds
10:39 AM 59.0 °F - 50.0 °F 72% 30.09 in 10.0 mi Calm Calm - N/A   Scattered Clouds
10:59 AM 57.2 °F - 50.0 °F 77% 30.09 in 10.0 mi Calm Calm - N/A   Scattered Clouds
11:19 AM 59.0 °F - 51.8 °F 77% 30.08 in 10.0 mi Calm Calm - N/A   Scattered Clouds
11:39 AM 59.0 °F - 51.8 °F 77% 30.07 in 10.0 mi Calm Calm - N/A   Scattered Clouds
11:59 AM 59.0 °F - 51.8 °F 77% 30.06 in 10.0 mi Calm Calm - N/A   Scattered Clouds
12:19 PM 59.0 °F - 51.8 °F 77% 30.05 in 10.0 mi Calm Calm - N/A   Mostly Cloudy
12:39 PM 59.0 °F - 51.8 °F 77% 30.05 in 10.0 mi Calm Calm - N/A   Mostly Cloudy
12:59 PM 60.8 °F - 51.8 °F 72% 30.03 in 10.0 mi Calm Calm - N/A   Scattered Clouds
1:19 PM 60.8 °F - 51.8 °F 72% 30.02 in 10.0 mi Calm Calm - N/A   Scattered Clouds
1:39 PM 60.8 °F - 51.8 °F 72% 30.01 in 10.0 mi Calm Calm - N/A   Scattered Clouds
1:59 PM 60.8 °F - 51.8 °F 72% 30.00 in 10.0 mi Calm Calm - N/A   Clear
2:19 PM 60.8 °F - 51.8 °F 72% 29.98 in 10.0 mi SW 3.5 mph - N/A   Clear
2:39 PM 60.8 °F - 51.8 °F 72% 29.97 in 10.0 mi SW 3.5 mph - N/A   Clear
2:59 PM 60.8 °F - 51.8 °F 72% 29.96 in 10.0 mi Calm Calm - N/A   Clear
3:19 PM 60.8 °F - 51.8 °F 72% 29.95 in 10.0 mi Calm Calm - N/A   Clear
3:39 PM 60.8 °F - 51.8 °F 72% 29.94 in 10.0 mi Calm Calm - N/A   Clear
3:59 PM 60.8 °F - 51.8 °F 72% 29.94 in 10.0 mi Calm Calm - N/A   Clear
4:19 PM 60.8 °F - 51.8 °F 72% 29.92 in 10.0 mi Calm Calm - N/A   Clear
4:39 PM 60.8 °F - 51.8 °F 72% 29.91 in 10.0 mi Calm Calm - N/A   Scattered Clouds
4:59 PM 60.8 °F - 51.8 °F 72% 29.91 in 10.0 mi Calm Calm - N/A   Scattered Clouds
5:19 PM 59.0 °F - 51.8 °F 77% 29.89 in 10.0 mi Calm Calm - N/A   Scattered Clouds
5:40 PM 59.0 °F - 51.8 °F 77% 29.89 in 10.0 mi Calm Calm - N/A   Scattered Clouds
6:00 PM 59.0 °F - 51.8 °F 77% 29.87 in 10.0 mi Calm Calm - N/A   Scattered Clouds
6:20 PM 57.2 °F - 51.8 °F 82% 29.87 in 10.0 mi Calm Calm - N/A   Scattered Clouds
6:40 PM 55.4 °F - 51.8 °F 88% 29.88 in 10.0 mi SSW 3.5 mph - N/A   Clear
7:00 PM 57.2 °F - 53.6 °F 88% 29.86 in 10.0 mi Calm Calm - N/A   Mostly Cloudy
7:20 PM 57.2 °F - 53.6 °F 88% 29.84 in 10.0 mi Calm Calm - N/A   Scattered Clouds
8:00 PM 57.2 °F - 53.6 °F 88% 29.81 in 10.0 mi SSW 5.8 mph - N/A   Scattered Clouds
8:20 PM 59.0 °F - 53.6 °F 82% 29.80 in 10.0 mi South 6.9 mph - N/A   Mostly Cloudy
8:40 PM 59.0 °F - 53.6 °F 82% 29.79 in 10.0 mi SSW 5.8 mph - N/A   Overcast
9:00 PM 59.0 °F - 53.6 °F 82% 29.78 in 10.0 mi SSW 6.9 mph - N/A   Overcast
9:20 PM 59.0 °F - 53.6 °F 82% 29.77 in 10.0 mi SSW 6.9 mph - N/A   Overcast
9:40 PM 59.0 °F - 53.6 °F 82% 29.75 in 10.0 mi SSW 6.9 mph - N/A   Overcast
10:00 PM 59.0 °F - 53.6 °F 82% 29.74 in 10.0 mi SSW 6.9 mph - N/A   Overcast
10:20 PM 59.0 °F - 55.4 °F 88% 29.74 in 10.0 mi SW 8.1 mph - N/A   Overcast
10:40 PM 59.0 °F - 55.4 °F 88% 29.72 in 10.0 mi South 5.8 mph - N/A   Overcast
11:00 PM 57.2 °F - 55.4 °F 94% 29.71 in 10.0 mi SSW 4.6 mph - N/A   Mostly Cloudy
11:20 PM 57.2 °F - 55.4 °F 94% 29.69 in 10.0 mi South 5.8 mph - N/A   Mostly Cloudy
11:40 PM 57.2 °F - 55.4 °F 94% 29.69 in 10.0 mi South 6.9 mph - N/A   Scattered Clouds